Regional Weather Roundup
Issued by NWS

Home | Current Version | Previous Version | Graphics & Text | Print | Product List | Glossary On
Versions: 1 2 3 4 5 6 7 8 9 10 11 12 13 14 15 16 17 18 19 20 21 22 23 24 25 26 27 28 29 30 31 32 33 34 35 36 37 38 39 40 41 42 43 44 45 46 47 48 49 50
000
ASUS45 KSLC 280710
RWRUT

UTAH REGIONAL WEATHER ROUNDUP
NATIONAL WEATHER SERVICE SALT LAKE CITY UT
100 AM MDT FRI JUL 28 2017

UTZ001>011-023>025-280800-

NORTHERN UTAH

CITY           SKY/WX    TMP DP  RH WIND       PRES   REMARKS
BRIGHAM CITY   CLEAR     67  53  59 NW5       30.10S
HILL AFB       CLEAR     71  52  51 E14       30.12S
LOGAN          CLEAR     62  57  83 CALM      30.13F
OGDEN          CLEAR     70  52  52 W3        30.09R
SALT LAKE CITY PTCLDY    75  60  59 S3        30.07S
TOOELE VALLEY  CLEAR     68  54  60 SE5       30.10S
WENDOVER       MOCLDY    80  48  32 N10       30.09R
HEBER CITY     CLEAR     61  45  55 E3        30.19S
WEST JORDAN    CLEAR     74  59  60 CALM      30.12S

$$

UTZ011>015-024>027-280800-

CENTRAL/NORTHEAST UTAH

CITY           SKY/WX    TMP DP  RH WIND       PRES   REMARKS
PROVO AIRPORT  CLEAR     69  58  67 CALM      30.10S
MOAB/CANYONLAN PTCLDY    79  60  52 W5        30.02R
DELTA          PTCLDY    72  48  43 NE3       30.09R
PRICE          CLEAR     69  49  48 N3        30.16F
RICHFIELD      CLEAR     64  55  72 CALM      30.16R
ROOSEVELT      CLEAR     63  50  63 W6        30.15R
VERNAL         CLEAR     67  51  56 VRB3      30.13S

$$

UTZ013>016-019>022-027-280800-

SOUTHERN UTAH

CITY           SKY/WX    TMP DP  RH WIND       PRES   REMARKS
BRYCE CANYON   MOCLDY    60  54  80 CALM      30.34S
CEDAR CITY     CLEAR     70  54  56 SE5       30.17R
MILFORD        MOCLDY    75  52  44 SW6       30.10R
ST GEORGE      SUNNY     84  62  47 N5        29.94S
HANKSVILLE     CLEAR     79  50  36 CALM      30.05S
KANAB          CLEAR     72  55  56 W3        30.16R
BLANDING       CLOUDY    70  54  56 NW6       30.27F

$$

REGIONAL REPORTS     COLORADO/ARIZONA

CITY           SKY/WX    TMP DP  RH WIND       PRES   REMARKS
CRAIG, CO      CLEAR     59  52  77 CALM      30.22S
GRAND JUNCTION PTCLDY    75  53  46 E3        30.06S
RIFLE, CO      CLEAR     69  53  56 CALM      30.15R
MONTROSE, CO   CLEAR     71  50  47 SE13      30.16F
CORTEZ, CO     CLOUDY    71  54  54 NE6       30.20F
COLORADO CITY    N/A     70  64  83 SE3       30.14S
PAGE, AZ       MOCLDY    80  56  43 S14G25    30.05F
GRAND CANYON   PTCLDY    62  61  96 CALM      30.28F
KINGMAN, AZ    PTCLDY    81  54  39 CALM      30.00R
FLAGSTAFF, AZ  PTCLDY    56  55  97 CALM      30.32S

$$

REGIONAL REPORTS    NEVADA/IDAHO/WYOMING

CITY           SKY/WX    TMP DP  RH WIND       PRES   REMARKS
LAS VEGAS, NV  PTCLDY    94  52  24 SW6       29.85S HX  91
ELY, NY        CLEAR     57  47  69 SE7       30.23S
ELKO, NV       CLEAR     64  43  46 CALM      30.14S
POCATELLO, ID  CLEAR     57  52  83 CALM      30.15S
BURLEY, ID     CLEAR     65  50  58 VRB5      30.10R
FORT BRIDGER,    N/A     56  41  55 W7        30.33F
EVANSTON, WY   CLEAR     63  45  51 SE5       30.31S
ROCK SPRINGS,  CLEAR     63  44  50 W5        30.27S
KEMMERER, WY     N/A     54  43  66 NW8       30.33S

$$



USA.gov is the U.S. government's official web portal to all federal, state and local government web resources and services.